STARLINK-32837, 62812

Orbit data source: Space-Track

STARLINK-32837, 62812 is a payload satellite owned by SpaceX/Seattle (US) in LEO that was launched on Fri, 24 Jan 2025 UTC via an FALCON 9 launch vehicle from the Air Force Western Test Range (AFWTR). Payloads include a variety of satellites, spacecraft, and rockets equipped with specific instruments for various scientific and technological missions. These include communications satellites like Starlink; space stations such as the ISS; scientific satellites like the Hubble; Earth observation satellites from companies like Planet Labs, Umbra, and HawkEye 360; GPS; miniature CubeSats for education and research; and military/defense satellites.

Loading next visibility...
STARLINK-32837 details
Identifier
62812, 2025-018G
Orbit
LEO
Last TLE update8 hours ago
Origin
Flag of USSpaceX/Seattle (US)
ManufacturerSpaceX/Seattle
MissionOperational spacecraft
Bus & MotorSTARLINK V2M, Unknown motor
Mass730 kg wet, ~700 kg dry
Launch date (UTC)
2025-01-24 (3 weeks ago)
Launch vehicle
FALCON 9
Launch site
Air Force Western Test Range (AFWTR)
Object type
Payload
Rocket body
Debris
Shape & HBRUnknown
Radar Cross SectionLarge (>1 m²)

Expand to show TLE details & history

TLE from 8 hours ago
0 STARLINK-32837
1 62812U 25018G   25047.16668981 -.01598258  00000-0 -25365-1 0  9990
2 62812  53.1589 312.5273 0000718  75.3509 273.9369 15.55654980  4832
Epoch: 2025-02-16T04:00Z
Definitive object data (Epoch: 2025-02-16T04:00:01.999Z)
Latitude-8.69342°
Longitude99.57408°
Altitude402.661 km
Speed7.67 km/s
True Right ascension20h 23m 56s
True Declination-8° 38' 22"
Sunlit
Object was in daylight at TLE epoch
Visualization TLE readout
Latitude27.51933°
Longitude127.3655°
Altitude404.491 km
Speed7.672 km/s
Apparent Right ascension00h 12m 39s
Apparent Declination-5° 57' 15"
Sunlit
Object is in daylight
Visualization observer readout
Local Sidereal Time14:41:00
Azimuth54.387° ENE
Elevation-42.464°
Doppler factor1
Orbital elements
Apogee altitude400.995 km
Perigee altitude400.022 km
Semi-major axis6,778.646 km
Eccentricity0.0000718
Inclination53.1589°
RAAN312.5273°
Arg. of periapsis75.3509°
True anomaly273.92869°
Mean anomaly273.9369°
Eccentric anomaly273.9328°
Mean motion3.88892 °/min
BSTAR-0.025365
Orbital period92.57 mins
Loading maneuver chart data...
Loading historical data...
Loading historical data...
Loading historical data...
Loading historical data...
Loading historical data...
Loading historical data...
Loading historical data...

STARLINK-32837 Visibility forecast

Observer location: undefined°, undefined

Span
Click to sort rows by Start time (UTC) header in descending order
Start Az.
Max El. time (UTC)
Max El. Az.
Max El.
End time (UTC)
End Az.
5 mins2025-02-16 19:38:33.603Z187.617° SSW2025-02-16 19:40:33.603Z138.654° SSE25.881°2025-02-16 19:43:33.603Z70.535° E
4 mins2025-02-16 21:15:33.603Z284.036° WNW2025-02-16 21:17:33.603Z345.527° N24.556°2025-02-16 21:19:33.603Z27.271° NE
4 mins2025-02-17 03:44:33.603Z273.666° WNW2025-02-17 03:45:33.603Z244.25° WSW27.784°2025-02-17 03:48:33.603Z163.926° S
|